DL1VED Weather Reports


time (UTC)temp
C
wind
direction
speed
KPH
gust
KPH
rain 1hr
cm
rain 24hr
cm
rain mn
cm
humidity
%
barometer
mb
20260502195911 17 187 0.0 0.0 0.00 0.00 0.00 44 1015.0
20260502194411 18 187 0.0 0.0 0.00 0.00 0.00 42 1014.8
20260502192911 18 187 0.0 0.0 0.00 0.00 0.00 40 1014.8
20260502191411 19 199 0.0 0.0 0.00 0.00 0.00 39 1014.8
20260502185911 19 170 0.0 3.2 0.00 0.00 0.00 40 1014.7
20260502184411 20 215 0.0 0.0 0.00 0.00 0.00 40 1014.7
20260502182911 21 215 0.0 0.0 0.00 0.00 0.00 37 1014.6
20260502181411 22 215 0.0 0.0 0.00 0.00 0.00 34 1014.5
20260502162912 25 239 9.7 14.5 0.00 0.00 0.00 27 1015.0
20260502161412 26 248 8.0 12.9 0.00 0.00 0.00 27 1015.2
20260502151412 27 243 6.4 14.5 0.00 0.00 0.00 29 1015.8
20260502122912 25 260 4.8 20.9 0.00 0.00 0.00 37 1017.8
20260502121412 25 254 16.1 16.1 0.00 0.00 0.00 100 1018.2
20260502115912 25 298 12.9 20.9 0.00 0.00 0.00 100 1018.2
20260502114412 25 254 12.9 14.5 0.00 0.00 0.00 100 1018.3
20260502112912 25 254 11.3 14.5 0.00 0.00 0.00 100 1018.7
20260502111412 25 264 8.0 14.5 0.00 0.00 0.00 35 1018.8
20260502105912 24 240 9.7 16.1 0.00 0.00 0.00 100 1018.8
20260502104412 24 258 6.4 16.1 0.00 0.00 0.00 100 1018.9
20260502102912 24 244 6.4 11.3 0.00 0.00 0.00 100 1019.0
20260502101412 24 243 0.0 8.0 0.00 0.00 0.00 100 1019.2
20260502091412 22 205 0.0 4.8 0.00 0.00 0.00 100 1019.8
20260502071412 16 182 0.0 0.0 0.00 0.00 0.00 52 1020.9
20260502065912 15 181 1.6 3.2 0.00 0.00 0.00 54 1020.8
20260502064418 15 36 0.0 0.0 0.00 0.00 0.00 57 1021.1
20260502064412 15 36 0.0 0.0 0.00 0.00 0.00 57 1021.1
20260502062912 13 36 0.0 0.0 0.00 0.00 0.00 60 1021.1
20260502061412 12 36 0.0 0.0 0.00 0.00 0.00 64 1021.1
20260502055912 11 36 0.0 0.0 0.00 0.00 0.00 100 1021.1
20260502054412 11 36 0.0 0.0 0.00 0.00 0.00 100 1021.1
20260502052912 10 36 0.0 0.0 0.00 0.00 0.00 66 1021.0
20260502051412 9 36 0.0 0.0 0.00 0.00 0.00 100 1021.0
20260502045912 9 36 0.0 0.0 0.00 0.00 0.00 100 1021.1
20260502044412 9 36 0.0 0.0 0.00 0.00 0.00 67 1021.0
20260502042912 9 36 0.0 0.0 0.00 0.00 0.00 100 1020.9
20260502041412 9 36 0.0 0.0 0.00 0.00 0.00 64 1021.0
20260502035912 9 36 0.0 0.0 0.00 0.00 0.00 63 1020.5
20260502034412 9 36 0.0 0.0 0.00 0.00 0.00 100 1020.6
20260502032912 10 36 0.0 0.0 0.00 0.00 0.00 61 1020.8
20260502031412 10 36 0.0 0.0 0.00 0.00 0.00 61 1020.9
20260502025912 10 36 0.0 0.0 0.00 0.00 0.00 61 1020.9
20260502024412 10 36 0.0 0.0 0.00 0.00 0.00 60 1021.1
20260502022912 10 36 0.0 0.0 0.00 0.00 0.00 60 1021.0
20260502021418 10 36 0.0 0.0 0.00 0.00 0.00 59 1021.0
20260502021412 10 36 0.0 0.0 0.00 0.00 0.00 59 1021.0
20260502015912 10 36 0.0 0.0 0.00 0.00 0.00 100 1021.2
20260502014412 10 36 0.0 0.0 0.00 0.00 0.00 58 1021.3
20260502012912 10 36 0.0 0.0 0.00 0.00 0.00 57 1021.1
20260502011412 11 36 0.0 0.0 0.00 0.00 0.00 57 1021.2
20260502005916 11 36 0.0 0.0 0.00 0.00 0.00 55 1021.2
20260502005912 11 36 0.0 0.0 0.00 0.00 0.00 55 1021.2
20260502004419 11 36 0.0 0.0 0.00 0.00 0.00 55 1021.4
20260502004412 11 36 0.0 0.0 0.00 0.00 0.00 55 1021.4
20260502002912 11 36 0.0 0.0 0.00 0.00 0.00 55 1021.4
20260502001412 11 36 0.0 0.0 0.00 0.00 0.00 53 1021.6
20260501235912 11 36 0.0 0.0 0.00 0.00 0.00 54 1021.7
20260501234412 11 36 0.0 0.0 0.00 0.00 0.00 52 1021.8
20260501232912 12 36 0.0 0.0 0.00 0.00 0.00 51 1021.9
20260501231412 12 36 0.0 0.0 0.00 0.00 0.00 50 1022.0
20260501225913 12 36 0.0 0.0 0.00 0.00 0.00 49 1022.0
20260501224413 12 36 0.0 0.0 0.00 0.00 0.00 49 1022.2
20260501222913 12 36 0.0 0.0 0.00 0.00 0.00 49 1022.2
20260501221413 12 36 0.0 0.0 0.00 0.00 0.00 49 1022.2
20260501215913 13 36 0.0 0.0 0.00 0.00 0.00 47 1022.2
20260501214413 13 36 0.0 0.0 0.00 0.00 0.00 47 1022.2
20260501212913 13 36 0.0 0.0 0.00 0.00 0.00 47 1022.2
20260501211413 13 36 0.0 0.0 0.00 0.00 0.00 46 1022.3
20260501205913 13 36 0.0 0.0 0.00 0.00 0.00 45 1022.3
20260501204413 13 36 0.0 0.0 0.00 0.00 0.00 45 1022.5
20260501202913 14 36 0.0 0.0 0.00 0.00 0.00 44 1022.5
20260501201413 15 36 0.0 0.0 0.00 0.00 0.00 42 1022.5